Location: Maiden
(35.5760°N, 81.2120°W)
Time: 03:07:28
(UTC-04:00)

Vanguard 2 - Pass Details

Date: 10 August 2020
Orbit: 553 x 2937 km, 32.9° (Epoch: 20 September)

Event Time Altitude Azimuth Distance (km) Brightness Sun altitude
Rises 17:43:24 0° 191° (S) 6,377 12.4 30.3°
Reaches altitude 10° 17:49:29 10° 175° (S) 5,611 12.0 29.1°
Maximum altitude 18:00:08 19° 137° (SE) 4,985 11.4 26.9°
Drops below altitude 10° 18:10:32 10° 100° (E) 5,548 11.4 24.8°
Sets 18:16:20 0° 85° (E) 6,294 11.6 23.6°
